| time (UTC) | temp F | wind direction | speed MPH | gust MPH | rain 1hr in | rain 24hr in | rain mn in | humidity % | barometer mb |
| 20260504023539 | 66 | 236 | 2.0 | 8.0 | 0.00 | 0.00 | 0.00 | 49 | 1021.2 |
| 20260504023058 | 66 | 170 | 1.0 | 8.0 | 0.00 | 0.00 | 0.00 | 49 | 1021.2 |
| 20260504022542 | 66 | 118 | 1.0 | 8.0 | 0.00 | 0.00 | 0.00 | 49 | 1021.2 |
| 20260504022040 | 66 | 0 | 0.0 | 11.0 | 0.00 | 0.00 | 0.00 | 49 | 1021.2 |
| 20260504021552 | 66 | 134 | 3.0 | 11.0 | 0.00 | 0.00 | 0.00 | 49 | 1021.2 |
| 20260504021039 | 66 | 236 | 2.0 | 7.0 | 0.00 | 0.00 | 0.00 | 49 | 1021.2 |
| 20260504020539 | 66 | 214 | 2.0 | 7.0 | 0.00 | 0.00 | 0.00 | 49 | 1021.2 |
| 20260504020048 | 66 | 0 | 0.0 | 6.0 | 0.00 | 0.00 | 0.00 | 49 | 1021.2 |
| 20260504015539 | 66 | 201 | 2.0 | 6.0 | 0.00 | 0.00 | 0.00 | 48 | 1021.2 |
| 20260504015038 | 66 | 160 | 0.0 | 7.0 | 0.00 | 0.00 | 0.00 | 48 | 1021.2 |
| 20260504014559 | 66 | 0 | 0.0 | 7.0 | 0.00 | 0.00 | 0.00 | 48 | 1021.2 |
| 20260504014038 | 66 | 143 | 1.0 | 9.0 | 0.00 | 0.00 | 0.00 | 48 | 1021.2 |
| 20260504013540 | 66 | 0 | 2.0 | 9.0 | 0.00 | 0.00 | 0.00 | 48 | 1021.2 |
| 20260504013059 | 66 | 0 | 0.0 | 7.0 | 0.00 | 0.00 | 0.00 | 48 | 1021.2 |
| 20260504012539 | 67 | 162 | 1.0 | 8.0 | 0.00 | 0.00 | 0.00 | 47 | 1021.2 |
| 20260504012039 | 67 | 157 | 3.0 | 9.0 | 0.00 | 0.00 | 0.00 | 47 | 1021.2 |
| 20260504011549 | 67 | 153 | 2.0 | 9.0 | 0.00 | 0.00 | 0.00 | 47 | 1021.2 |
| 20260504011038 | 67 | 150 | 2.0 | 9.0 | 0.00 | 0.00 | 0.00 | 46 | 1021.2 |
| 20260504010538 | 68 | 214 | 0.0 | 0.0 | 0.00 | 0.00 | 0.00 | 46 | 1021.2 |
| 20260504010055 | 68 | 0 | 0.0 | 1.0 | 0.00 | 0.00 | 0.00 | 44 | 1021.2 |
| 20260504005542 | 68 | 0 | 0.0 | 1.0 | 0.00 | 0.00 | 0.00 | 43 | 1021.2 |
| 20260504005036 | 68 | 0 | 0.0 | 3.0 | 0.00 | 0.00 | 0.00 | 42 | 1021.2 |
| 20260504004554 | 69 | 0 | 0.0 | 7.0 | 0.00 | 0.00 | 0.00 | 42 | 1021.2 |
| 20260504004038 | 69 | 0 | 1.0 | 7.0 | 0.00 | 0.00 | 0.00 | 41 | 1021.2 |
| 20260504003538 | 69 | 285 | 0.0 | 5.0 | 0.00 | 0.00 | 0.00 | 40 | 1021.2 |
| 20260504003055 | 69 | 0 | 1.0 | 5.0 | 0.00 | 0.00 | 0.00 | 40 | 1021.2 |
| 20260504002538 | 69 | 221 | 0.0 | 6.0 | 0.00 | 0.00 | 0.00 | 40 | 1021.2 |
| 20260504002039 | 69 | 258 | 0.0 | 6.0 | 0.00 | 0.00 | 0.00 | 39 | 1021.2 |
| 20260504001605 | 70 | 0 | 1.0 | 6.0 | 0.00 | 0.00 | 0.00 | 39 | 1021.2 |
| 20260504001039 | 70 | 211 | 2.0 | 6.0 | 0.00 | 0.00 | 0.00 | 38 | 1021.2 |
| 20260504000539 | 70 | 0 | 2.0 | 7.0 | 0.00 | 0.00 | 0.00 | 37 | 1021.2 |
| 20260504000115 | 71 | 205 | 3.0 | 8.0 | 0.00 | 0.00 | 0.00 | 36 | 1021.2 |
| 20260503235538 | 72 | 225 | 3.0 | 13.0 | 0.00 | 0.00 | 0.00 | 37 | 1021.2 |
| 20260503235040 | 72 | 234 | 1.0 | 13.0 | 0.00 | 0.00 | 0.00 | 37 | 1021.2 |
| 20260503234556 | 72 | 236 | 1.0 | 9.0 | 0.00 | 0.00 | 0.00 | 38 | 1021.2 |
| 20260503234039 | 72 | 191 | 1.0 | 5.0 | 0.00 | 0.00 | 0.00 | 38 | 1021.2 |
| 20260503233539 | 71 | 0 | 0.0 | 4.0 | 0.00 | 0.00 | 0.00 | 42 | 1021.2 |
| 20260503233045 | 70 | 0 | 0.0 | 5.0 | 0.00 | 0.00 | 0.00 | 41 | 1021.2 |
| 20260503232538 | 70 | 0 | 0.0 | 7.0 | 0.00 | 0.00 | 0.00 | 41 | 1021.2 |
| 20260503232038 | 70 | 214 | 1.0 | 9.0 | 0.00 | 0.00 | 0.00 | 41 | 1021.2 |
| 20260503231545 | 70 | 172 | 1.0 | 9.0 | 0.00 | 0.00 | 0.00 | 41 | 1021.2 |
| 20260503231038 | 70 | 169 | 1.0 | 9.0 | 0.00 | 0.00 | 0.00 | 41 | 1021.2 |
| 20260503230537 | 70 | 0 | 2.0 | 10.0 | 0.00 | 0.00 | 0.00 | 41 | 1021.2 |
| 20260503230053 | 70 | 267 | 2.0 | 10.0 | 0.00 | 0.00 | 0.00 | 40 | 1021.2 |
| 20260503225540 | 71 | 173 | 1.0 | 8.0 | 0.00 | 0.00 | 0.00 | 40 | 1021.2 |
| 20260503225039 | 71 | 0 | 2.0 | 8.0 | 0.00 | 0.00 | 0.00 | 40 | 1021.2 |
| 20260503224552 | 71 | 192 | 2.0 | 8.0 | 0.00 | 0.00 | 0.00 | 39 | 1021.2 |
| 20260503224039 | 71 | 0 | 2.0 | 8.0 | 0.00 | 0.00 | 0.00 | 39 | 1021.2 |
| 20260503223539 | 71 | 0 | 2.0 | 8.0 | 0.00 | 0.00 | 0.00 | 39 | 1021.2 |
| 20260503223051 | 71 | 0 | 2.0 | 7.0 | 0.00 | 0.00 | 0.00 | 40 | 1021.2 |
| 20260503222538 | 71 | 260 | 1.0 | 4.0 | 0.00 | 0.00 | 0.00 | 39 | 1021.2 |
| 20260503222042 | 71 | 0 | 0.0 | 8.0 | 0.00 | 0.00 | 0.00 | 40 | 1021.2 |
| 20260503221553 | 71 | 0 | 3.0 | 8.0 | 0.00 | 0.00 | 0.00 | 39 | 1021.2 |
| 20260503221039 | 71 | 228 | 1.0 | 12.0 | 0.00 | 0.00 | 0.00 | 39 | 1021.2 |
| 20260503220539 | 71 | 240 | 2.0 | 12.0 | 0.00 | 0.00 | 0.00 | 39 | 1021.2 |
| 20260503220050 | 71 | 288 | 0.0 | 5.0 | 0.00 | 0.00 | 0.00 | 39 | 1021.2 |
| 20260503215539 | 71 | 0 | 0.0 | 8.0 | 0.00 | 0.00 | 0.00 | 39 | 1021.2 |
| 20260503215039 | 71 | 0 | 2.0 | 10.0 | 0.00 | 0.00 | 0.00 | 39 | 1021.2 |
| 20260503214545 | 71 | 228 | 3.0 | 10.0 | 0.00 | 0.00 | 0.00 | 39 | 1021.2 |
| 20260503214038 | 71 | 214 | 1.0 | 6.0 | 0.00 | 0.00 | 0.00 | 38 | 1021.2 |
| 20260503213538 | 71 | 283 | 1.0 | 14.0 | 0.00 | 0.00 | 0.00 | 37 | 1021.2 |
| 20260503213046 | 71 | 0 | 2.0 | 14.0 | 0.00 | 0.00 | 0.00 | 38 | 1021.2 |
| 20260503212538 | 71 | 199 | 4.0 | 14.0 | 0.00 | 0.00 | 0.00 | 37 | 1021.2 |
| 20260503212039 | 71 | 224 | 1.0 | 11.0 | 0.00 | 0.00 | 0.00 | 38 | 1021.2 |
| 20260503211544 | 71 | 139 | 3.0 | 11.0 | 0.00 | 0.00 | 0.00 | 39 | 1021.2 |
| 20260503211038 | 71 | 214 | 5.0 | 11.0 | 0.00 | 0.00 | 0.00 | 39 | 1021.2 |
| 20260503210538 | 71 | 227 | 3.0 | 11.0 | 0.00 | 0.00 | 0.00 | 41 | 1021.2 |
| 20260503210042 | 70 | 274 | 5.0 | 11.0 | 0.00 | 0.00 | 0.00 | 41 | 1021.2 |
| 20260503205538 | 70 | 233 | 4.0 | 11.0 | 0.00 | 0.00 | 0.00 | 41 | 1021.2 |
| 20260503205039 | 69 | 68 | 3.0 | 11.0 | 0.00 | 0.00 | 0.00 | 41 | 1021.2 |
| 20260503204547 | 70 | 0 | 1.0 | 11.0 | 0.00 | 0.00 | 0.00 | 41 | 1021.2 |
| 20260503204038 | 70 | 156 | 3.0 | 14.0 | 0.00 | 0.00 | 0.00 | 42 | 1021.2 |
| 20260503203541 | 70 | 0 | 5.0 | 14.0 | 0.00 | 0.00 | 0.00 | 43 | 1021.2 |
| 20260503203047 | 71 | 91 | 3.0 | 11.0 | 0.00 | 0.00 | 0.00 | 41 | 1021.2 |
| 20260503202538 | 71 | 232 | 1.0 | 10.0 | 0.00 | 0.00 | 0.00 | 42 | 1021.2 |
| 20260503202039 | 71 | 283 | 5.0 | 10.0 | 0.00 | 0.00 | 0.00 | 40 | 1021.2 |
| 20260503201548 | 70 | 0 | 4.0 | 10.0 | 0.00 | 0.00 | 0.00 | 42 | 1021.2 |
| 20260503201042 | 71 | 238 | 1.0 | 9.0 | 0.00 | 0.00 | 0.00 | 40 | 1021.2 |
| 20260503200538 | 71 | 232 | 2.0 | 9.0 | 0.00 | 0.00 | 0.00 | 41 | 1021.2 |
| 20260503200051 | 70 | 0 | 0.0 | 9.0 | 0.00 | 0.00 | 0.00 | 41 | 1021.2 |
| 20260503195539 | 70 | 115 | 4.0 | 9.0 | 0.00 | 0.00 | 0.00 | 40 | 1021.2 |
| 20260503195040 | 70 | 0 | 2.0 | 10.0 | 0.00 | 0.00 | 0.00 | 41 | 1021.2 |
| 20260503194547 | 70 | 202 | 4.0 | 10.0 | 0.00 | 0.00 | 0.00 | 41 | 1021.2 |
| 20260503194038 | 70 | 0 | 0.0 | 6.0 | 0.00 | 0.00 | 0.00 | 40 | 1021.2 |
| 20260503193539 | 69 | 0 | 2.0 | 13.0 | 0.00 | 0.00 | 0.00 | 40 | 1021.2 |
| 20260503193052 | 69 | 236 | 2.0 | 13.0 | 0.00 | 0.00 | 0.00 | 41 | 1021.2 |
| 20260503192540 | 69 | 98 | 7.0 | 11.0 | 0.00 | 0.00 | 0.00 | 41 | 1021.2 |
| 20260503192042 | 70 | 159 | 2.0 | 9.0 | 0.00 | 0.00 | 0.00 | 41 | 1021.2 |
| 20260503191549 | 69 | 261 | 0.0 | 8.0 | 0.00 | 0.00 | 0.00 | 43 | 1021.2 |
| 20260503191041 | 68 | 198 | 2.0 | 9.0 | 0.00 | 0.00 | 0.00 | 42 | 1021.2 |
| 20260503190540 | 68 | 197 | 2.0 | 9.0 | 0.00 | 0.00 | 0.00 | 43 | 1021.2 |
| 20260503190047 | 68 | 91 | 3.0 | 9.0 | 0.00 | 0.00 | 0.00 | 43 | 1021.2 |
| 20260503185538 | 68 | 244 | 1.0 | 8.0 | 0.00 | 0.00 | 0.00 | 42 | 1021.2 |
| 20260503185039 | 68 | 203 | 4.0 | 10.0 | 0.00 | 0.00 | 0.00 | 40 | 1021.2 |
| 20260503184551 | 68 | 0 | 3.0 | 10.0 | 0.00 | 0.00 | 0.00 | 42 | 1021.2 |
| 20260503184042 | 67 | 193 | 4.0 | 10.0 | 0.00 | 0.00 | 0.00 | 43 | 1021.2 |
| 20260503183539 | 67 | 0 | 5.0 | 11.0 | 0.00 | 0.00 | 0.00 | 43 | 1021.2 |
| 20260503183105 | 68 | 52 | 4.0 | 11.0 | 0.00 | 0.00 | 0.00 | 44 | 1021.2 |
| 20260503182539 | 68 | 226 | 3.0 | 11.0 | 0.00 | 0.00 | 0.00 | 42 | 1021.2 |
| 20260503182039 | 67 | 270 | 1.0 | 9.0 | 0.00 | 0.00 | 0.00 | 44 | 1021.2 |
| 20260503181617 | 67 | 255 | 2.0 | 10.0 | 0.00 | 0.00 | 0.00 | 46 | 1021.2 |
| 20260503181039 | 67 | 0 | 3.0 | 10.0 | 0.00 | 0.00 | 0.00 | 46 | 1021.2 |
| 20260503180539 | 66 | 0 | 5.0 | 11.0 | 0.00 | 0.00 | 0.00 | 46 | 1021.2 |
| 20260503180051 | 66 | 0 | 2.0 | 12.0 | 0.00 | 0.00 | 0.00 | 46 | 1021.2 |
| 20260503175538 | 66 | 159 | 2.0 | 13.0 | 0.00 | 0.00 | 0.00 | 45 | 1021.2 |
| 20260503175040 | 65 | 134 | 4.0 | 13.0 | 0.00 | 0.00 | 0.00 | 46 | 1021.2 |
| 20260503174551 | 65 | 78 | 4.0 | 12.0 | 0.00 | 0.00 | 0.00 | 47 | 1021.2 |
| 20260503174039 | 65 | 46 | 3.0 | 11.0 | 0.00 | 0.00 | 0.00 | 48 | 1021.2 |
| 20260503173539 | 64 | 150 | 6.0 | 11.0 | 0.00 | 0.00 | 0.00 | 47 | 1021.2 |
| 20260503173056 | 63 | 84 | 5.0 | 12.0 | 0.00 | 0.00 | 0.00 | 50 | 1021.2 |
| 20260503172543 | 64 | 104 | 5.0 | 12.0 | 0.00 | 0.00 | 0.00 | 50 | 1021.2 |
| 20260503172043 | 63 | 156 | 5.0 | 10.0 | 0.00 | 0.00 | 0.00 | 50 | 1021.2 |
| 20260503171545 | 63 | 139 | 4.0 | 11.0 | 0.00 | 0.00 | 0.00 | 49 | 1021.2 |
| 20260503171038 | 63 | 139 | 4.0 | 11.0 | 0.00 | 0.00 | 0.00 | 50 | 1021.2 |
| 20260503170538 | 63 | 176 | 5.0 | 9.0 | 0.00 | 0.00 | 0.00 | 50 | 1021.2 |
| 20260503150540 | 59 | 159 | 3.0 | 8.0 | 0.00 | 0.00 | 0.00 | 58 | 1021.2 |
| 20260503131039 | 47 | 0 | 0.0 | 0.0 | 0.00 | 0.00 | 0.00 | 82 | 1021.2 |
| 20260503130539 | 46 | 0 | 0.0 | 0.0 | 0.00 | 0.00 | 0.00 | 82 | 1021.2 |
| 20260503110538 | 44 | 0 | 0.0 | 0.0 | 0.00 | 0.00 | 0.00 | 85 | 1021.2 |
| 20260503100104 | 45 | 0 | 0.0 | 0.0 | 0.00 | 0.00 | 0.00 | 83 | 1021.2 |
| 20260503081540 | 46 | 0 | 0.0 | 1.0 | 0.00 | 0.02 | 0.00 | 77 | 1021.2 |
| 20260503081038 | 46 | 0 | 0.0 | 1.0 | 0.00 | 0.02 | 0.00 | 76 | 1021.2 |
| 20260503080539 | 47 | 0 | 0.0 | 1.0 | 0.00 | 0.02 | 0.00 | 76 | 1021.2 |
| 20260503072539 | 48 | 0 | 0.0 | 5.0 | 0.00 | 0.02 | 0.00 | 74 | 1021.2 |
| 20260503072040 | 48 | 101 | 1.0 | 5.0 | 0.00 | 0.02 | 0.00 | 73 | 1021.2 |
| 20260503071556 | 48 | 121 | 1.0 | 6.0 | 0.00 | 0.02 | 0.00 | 73 | 1021.2 |
| 20260503071039 | 48 | 0 | 1.0 | 7.0 | 0.00 | 0.02 | 0.00 | 74 | 1021.2 |
| 20260503070538 | 48 | 141 | 0.0 | 7.0 | 0.00 | 0.02 | 0.00 | 75 | 1021.2 |
| 20260503070106 | 48 | 0 | 0.0 | 4.0 | 0.00 | 0.02 | 0.00 | 75 | 1021.2 |
| 20260503060112 | 48 | 0 | 0.0 | 1.0 | 0.00 | 0.02 | 0.00 | 74 | 1021.2 |
| 20260503055042 | 48 | 0 | 0.0 | 3.0 | 0.00 | 0.02 | 0.00 | 73 | 1021.2 |
| 20260503054546 | 49 | 0 | 0.0 | 3.0 | 0.00 | 0.02 | 0.00 | 73 | 1021.2 |
| 20260503054038 | 49 | 0 | 0.0 | 8.0 | 0.00 | 0.02 | 0.00 | 72 | 1021.2 |
| 20260503053538 | 49 | 0 | 1.0 | 8.0 | 0.00 | 0.02 | 0.00 | 72 | 1021.2 |
| 20260503053046 | 49 | 57 | 0.0 | 4.0 | 0.00 | 0.02 | 0.00 | 72 | 1021.2 |
| 20260503052538 | 49 | 105 | 1.0 | 5.0 | 0.00 | 0.02 | 0.00 | 72 | 1021.2 |
| 20260503052038 | 49 | 140 | 0.0 | 5.0 | 0.00 | 0.02 | 0.00 | 72 | 1021.2 |
| 20260503051547 | 49 | 0 | 0.0 | 2.0 | 0.00 | 0.02 | 0.00 | 73 | 1021.2 |
| 20260503051039 | 49 | 0 | 0.0 | 4.0 | 0.00 | 0.02 | 0.00 | 72 | 1021.2 |
| 20260503050539 | 49 | 0 | 0.0 | 4.0 | 0.00 | 0.02 | 0.00 | 72 | 1021.2 |
| 20260503050052 | 49 | 0 | 0.0 | 2.0 | 0.00 | 0.02 | 0.00 | 72 | 1021.2 |
| 20260503045539 | 49 | 86 | 0.0 | 5.0 | 0.00 | 0.02 | 0.02 | 72 | 1021.2 |
| 20260503045039 | 49 | 0 | 0.0 | 5.0 | 0.00 | 0.02 | 0.02 | 72 | 1021.2 |
| 20260503044547 | 48 | 0 | 0.0 | 0.0 | 0.00 | 0.02 | 0.02 | 73 | 1021.2 |
| 20260503044042 | 48 | 0 | 0.0 | 0.0 | 0.00 | 0.02 | 0.02 | 72 | 1021.2 |
| 20260503043538 | 49 | 0 | 0.0 | 1.0 | 0.00 | 0.02 | 0.02 | 72 | 1021.2 |
| 20260503043047 | 49 | 0 | 0.0 | 4.0 | 0.00 | 0.02 | 0.02 | 71 | 1021.2 |
| 20260503042538 | 49 | 0 | 0.0 | 4.0 | 0.00 | 0.02 | 0.02 | 71 | 1021.2 |
| 20260503042038 | 50 | 0 | 0.0 | 3.0 | 0.00 | 0.02 | 0.02 | 71 | 1021.2 |
| 20260503041554 | 50 | 0 | 0.0 | 3.0 | 0.00 | 0.02 | 0.02 | 71 | 1021.2 |
| 20260503041043 | 49 | 0 | 0.0 | 0.0 | 0.00 | 0.02 | 0.02 | 71 | 1021.2 |
| 20260503040539 | 49 | 0 | 0.0 | 3.0 | 0.00 | 0.02 | 0.02 | 72 | 1021.2 |
| 20260503040051 | 49 | 0 | 0.0 | 3.0 | 0.00 | 0.02 | 0.02 | 72 | 1021.2 |
| 20260503035538 | 49 | 0 | 0.0 | 3.0 | 0.00 | 0.03 | 0.02 | 72 | 1021.2 |
| 20260503035039 | 49 | 0 | 0.0 | 0.0 | 0.00 | 0.03 | 0.02 | 72 | 1021.2 |
| 20260503034556 | 49 | 0 | 0.0 | 0.0 | 0.00 | 0.03 | 0.02 | 72 | 1021.2 |
| 20260503034042 | 49 | 0 | 0.0 | 0.0 | 0.00 | 0.03 | 0.02 | 72 | 1021.2 |
| 20260503033540 | 49 | 0 | 0.0 | 0.0 | 0.00 | 0.03 | 0.02 | 73 | 1021.2 |
| 20260503033057 | 49 | 0 | 0.0 | 0.0 | 0.00 | 0.03 | 0.02 | 73 | 1021.2 |
| 20260503032543 | 49 | 0 | 0.0 | 0.0 | 0.00 | 0.03 | 0.02 | 72 | 1021.2 |
| 20260503032039 | 49 | 0 | 0.0 | 0.0 | 0.00 | 0.03 | 0.02 | 71 | 1021.2 |
| 20260503031556 | 50 | 0 | 0.0 | 0.0 | 0.00 | 0.03 | 0.02 | 70 | 1021.2 |
| 20260503031038 | 50 | 0 | 0.0 | 0.0 | 0.00 | 0.03 | 0.02 | 70 | 1021.2 |
| 20260503030538 | 50 | 0 | 0.0 | 0.0 | 0.00 | 0.03 | 0.02 | 69 | 1021.2 |
| 20260503030056 | 51 | 0 | 0.0 | 0.0 | 0.00 | 0.03 | 0.02 | 69 | 1021.2 |
| 20260503025538 | 51 | 0 | 0.0 | 3.0 | 0.00 | 0.03 | 0.02 | 68 | 1021.2 |
| 20260503025038 | 51 | 0 | 0.0 | 6.0 | 0.00 | 0.03 | 0.02 | 68 | 1021.2 |
| 20260503024547 | 52 | 0 | 0.0 | 6.0 | 0.00 | 0.03 | 0.02 | 68 | 1021.2 |
| 20260503024039 | 52 | 55 | 0.0 | 5.0 | 0.00 | 0.03 | 0.02 | 67 | 1021.2 |